Location: Little Elm
(33.1626°N, 96.9375°W)
Time: 22:25:48
(UTC+00:00)

Cosmos 1515 Rocket - Pass Details

Date: 08 July 2022
Orbit: 604 x 631 km, 82.5° (Epoch: 13 August)

Event Time Altitude Azimuth Distance (km) Brightness Sun altitude
Rises 09:59:04 0° 326° (NW) 2,878 7.1 -15.8°
Reaches altitude 10° 10:02:53 10° 292° (WNW) 1,961 5.9 -15.2°
Enters shadow 10:03:36 11° 283° (WNW) 1,898 5.7 -15.1°
